This is the latest recevied weather packets stored in our database for station/object NO9B. If no packets are shown the sender has not sent any weather packets the latest 10 day(s).
| Time | Temp. | Humidity | Pressure | Rain* | Wind** | Luminosity | Snow |
|---|---|---|---|---|---|---|---|
| 1787602299 | 27.22° C | 36% | 1019.4 hPa | 0 mm | - | 328 W/m² | - |
| 1787601993 | 27.22° C | 39% | 1019.5 hPa | 0 mm | - | 562 W/m² | - |
| 1787601693 | 27.22° C | 40% | 1019.4 hPa | 0 mm | - | 569 W/m² | - |
| 1787601388 | 27.22° C | 40% | 1019.4 hPa | 0 mm | - | 566 W/m² | - |
| 1787601087 | 27.78° C | 42% | 1019.5 hPa | 0 mm | - | 555 W/m² | - |
| 1787600781 | 27.22° C | 38% | 1019.4 hPa | 0 mm | - | 560 W/m² | - |
| 1787600477 | 26.67° C | 39% | 1019.7 hPa | 0 mm | - | 589 W/m² | - |
| 1787600173 | 27.22° C | 38% | 1019.7 hPa | 0 mm | - | 590 W/m² | - |
| 1787599869 | 26.67° C | 40% | 1019.8 hPa | 0 mm | - | 608 W/m² | - |
| 1787599565 | 26.11° C | 47% | 1019.9 hPa | 0 mm | - | 602 W/m² | - |
| 1787599262 | 26.11° C | 39% | 1019.7 hPa | 0 mm | - | 620 W/m² | - |
| 1787598956 | 25.56° C | 42% | 1019.7 hPa | 0 mm | - | 632 W/m² | - |
| 1787598652 | 25.56° C | 44% | 1019.8 hPa | 0 mm | - | 574 W/m² | - |
| 1787598352 | 25° C | 42% | 1019.7 hPa | 0 mm | - | 619 W/m² | - |
| 1787598049 | 25.56° C | 43% | 1019.8 hPa | 0 mm | - | 623 W/m² | - |
| 1787597748 | 26.11° C | 40% | 1020.1 hPa | 0 mm | - | 628 W/m² | - |
| 1787597447 | 25.56° C | 43% | 1019.9 hPa | 0 mm | - | 626 W/m² | - |
| 1787597142 | 25.56° C | 43% | 1019.9 hPa | 0 mm | - | 629 W/m² | - |
| 1787596839 | 25.56° C | 43% | 1019.9 hPa | 0 mm | - | 628 W/m² | - |
| 1787596539 | 25.56° C | 44% | 1019.8 hPa | 0 mm | - | 628 W/m² | - |
| 1787596234 | 25° C | 43% | 1019.9 hPa | 0 mm | - | 635 W/m² | - |
| 1787595931 | 25° C | 44% | 1019.8 hPa | 0 mm | - | 639 W/m² | - |
| 1787595626 | 25.56° C | 42% | 1019.8 hPa | 0 mm | - | 634 W/m² | - |
| 1787595322 | 25.56° C | 46% | 1019.9 hPa | 0 mm | - | 639 W/m² | - |
| 1787595020 | 25.56° C | 46% | 1019.7 hPa | 0 mm | - | 641 W/m² | - |
* Rain latest hour (hover to see other rain measurements)
** Current wind speed in m/s (hover to see current wind gust speed)